When you browse on this site, cookies collect data to enhance your experience and personalize the content and advertising you see.
Visit our Privacy Policy to learn more. By continuing to use the site, you agree to this use of cookies and data.
  • Em Portugal
  • Lista de países
  • Para 7 dias
  • Temperatura da água
  • Mapas de satélite
  • Mapa do tempo
  • Widgets de tempo
  • user-avatar
    Iniciar Sessão

    Previsão horária em Mochudi

    Hoje, 21 Janeiro, Segunda-feira

    Tempo Temperatura Precipitação Vento Pressão Humidade
    00:00 +25°C° 0 mm 2 m/s 683 mmHg 55%
    01:00 +25°C° 0 mm 2 m/s 683 mmHg 57%
    02:00 +24°C° 0 mm 2 m/s 683 mmHg 59%
    03:00 +24°C° 0 mm 3 m/s 683 mmHg 59%
    04:00 +22°C° 0 mm 4 m/s 683 mmHg 59%
    05:00 +22°C° 0 mm 4 m/s 683 mmHg 59%
    06:00 +22°C° 0 mm 4 m/s 684 mmHg 58%
    07:00 +22°C° 0 mm 4 m/s 684 mmHg 57%
    08:00 +23°C° 0 mm 5 m/s 685 mmHg 56%
    09:00 +26°C° 0 mm 4 m/s 685 mmHg 50%
    10:00 +27°C° 0 mm 4 m/s 685 mmHg 45%
    11:00 +29°C° 0 mm 3 m/s 685 mmHg 39%
    12:00 +30°C° 0 mm 3 m/s 684 mmHg 33%
    13:00 +33°C° 0 mm 3 m/s 684 mmHg 28%
    14:00 +34°C° 0 mm 3 m/s 683 mmHg 22%
    15:00 +34°C° 0 mm 3 m/s 683 mmHg 21%
    16:00 +34°C° 0 mm 2 m/s 682 mmHg 20%
    17:00 +35°C° 0 mm 2 m/s 681 mmHg 19%
    18:00 +32°C° 0 mm 2 m/s 681 mmHg 22%
    19:00 +30°C° 0 mm 2 m/s 681 mmHg 24%
    20:00 +29°C° 0 mm 2 m/s 681 mmHg 27%
    21:00 +28°C° 0 mm 2 m/s 681 mmHg 29%
    22:00 +27°C° 0 mm 2 m/s 681 mmHg 31%
    23:00 +26°C° 0 mm 2 m/s 681 mmHg 33%

    Amanhã, 22 Janeiro, Terça-feira

    Tempo Temperatura Precipitação Vento Pressão Humidade
    00:00 +26°C° 0 mm 2 m/s 681 mmHg 35%
    01:00 +25°C° 0 mm 1 m/s 681 mmHg 37%
    02:00 +25°C° 0 mm 1 m/s 680 mmHg 38%
    03:00 +24°C° 0 mm 1 m/s 680 mmHg 40%
    04:00 +23°C° 0 mm 2 m/s 680 mmHg 42%
    05:00 +23°C° 0 mm 2 m/s 680 mmHg 44%
    06:00 +24°C° 0 mm 2 m/s 681 mmHg 41%
    07:00 +25°C° 0 mm 3 m/s 681 mmHg 38%
    08:00 +27°C° 0 mm 3 m/s 682 mmHg 35%
    09:00 +29°C° 0 mm 3 m/s 682 mmHg 31%
    10:00 +31°C° 0 mm 2 m/s 682 mmHg 27%
    11:00 +35°C° 0 mm 2 m/s 682 mmHg 23%
    12:00 +36°C° 0 mm 2 m/s 682 mmHg 20%
    13:00 +38°C° 0 mm 2 m/s 681 mmHg 18%
    14:00 +39°C° 0 mm 2 m/s 680 mmHg 15%
    15:00 +39°C° 0 mm 2 m/s 680 mmHg 14%
    16:00 +39°C° 0 mm 2 m/s 679 mmHg 13%
    17:00 +39°C° 0 mm 2 m/s 678 mmHg 12%
    18:00 +37°C° 0 mm 2 m/s 678 mmHg 14%
    19:00 +35°C° 0 mm 2 m/s 678 mmHg 16%
    20:00 +32°C° 0 mm 2 m/s 678 mmHg 18%
    21:00 +32°C° 0 mm 2 m/s 678 mmHg 19%
    22:00 +31°C° 0 mm 2 m/s 678 mmHg 20%
    23:00 +30°C° 0 mm 2 m/s 678 mmHg 22%

    Depois de amanhã, 23 Janeiro, Quarta-feira

    Tempo Temperatura Precipitação Vento Pressão Humidade
    00:00 +29°C° 0 mm 2 m/s 678 mmHg 22%
    01:00 +29°C° 0 mm 2 m/s 678 mmHg 23%
    02:00 +28°C° 0 mm 1 m/s 677 mmHg 24%
    03:00 +28°C° 0 mm 2 m/s 677 mmHg 26%
    04:00 +28°C° 0 mm 2 m/s 678 mmHg 28%
    05:00 +27°C° 0 mm 2 m/s 678 mmHg 30%
    06:00 +28°C° 0 mm 2 m/s 678 mmHg 30%
    07:00 +29°C° 0 mm 2 m/s 679 mmHg 29%
    08:00 +30°C° 0 mm 3 m/s 680 mmHg 29%
    09:00 +33°C° 0 mm 3 m/s 680 mmHg 26%
    10:00 +35°C° 0 mm 3 m/s 680 mmHg 23%
    11:00 +37°C° 0 mm 3 m/s 680 mmHg 19%
    12:00 +38°C° 0 mm 2 m/s 680 mmHg 18%
    13:00 +40°C° 0 mm 2 m/s 679 mmHg 16%
    14:00 +41°C° 0 mm 2 m/s 679 mmHg 14%
    15:00 +41°C° 0 mm 2 m/s 678 mmHg 14%
    16:00 +41°C° 0 mm 2 m/s 678 mmHg 13%
    17:00 +41°C° 0 mm 1 m/s 677 mmHg 13%
    18:00 +39°C° 0 mm 1 m/s 677 mmHg 14%
    19:00 +37°C° 0 mm 1 m/s 677 mmHg 16%
    20:00 +35°C° 0 mm 1 m/s 676 mmHg 18%
    21:00 +34°C° 0 mm 1 m/s 676 mmHg 19%
    22:00 +34°C° 0 mm 2 m/s 677 mmHg 21%
    23:00 +31°C° 0 mm 2 m/s 677 mmHg 23%

    24 Janeiro, Quinta-feira

    Tempo Temperatura Precipitação Vento Pressão Humidade
    00:00 +31°C° 0 mm 2 m/s 676 mmHg 24%
    01:00 +30°C° 0 mm 2 m/s 676 mmHg 26%
    02:00 +30°C° 0 mm 2 m/s 676 mmHg 27%
    03:00 +29°C° 0 mm 2 m/s 676 mmHg 29%
    04:00 +29°C° 0 mm 2 m/s 677 mmHg 30%
    05:00 +29°C° 0 mm 1 m/s 677 mmHg 32%
    06:00 +29°C° 0 mm 3 m/s 678 mmHg 32%
    07:00 +30°C° 0 mm 4 m/s 679 mmHg 32%
    08:00 +32°C° 0 mm 6 m/s 679 mmHg 32%
    09:00 +33°C° 0 mm 6 m/s 679 mmHg 30%
    10:00 +35°C° 0 mm 5 m/s 680 mmHg 28%
    11:00 +36°C° 0 mm 5 m/s 680 mmHg 25%
    12:00 +37°C° 0 mm 5 m/s 679 mmHg 24%
    13:00 +38°C° 0 mm 4 m/s 679 mmHg 22%
    14:00 +41°C° 0 mm 4 m/s 678 mmHg 20%
    15:00 +40°C° 0 mm 3 m/s 678 mmHg 19%
    16:00 +40°C° 0 mm 3 m/s 678 mmHg 19%
    17:00 +40°C° 0 mm 3 m/s 677 mmHg 18%
    18:00 +38°C° 0 mm 3 m/s 677 mmHg 22%
    19:00 +37°C° 0 mm 3 m/s 677 mmHg 25%
    20:00 +35°C° 0 mm 4 m/s 677 mmHg 29%
    21:00 +34°C° 0 mm 5 m/s 678 mmHg 31%
    22:00 +33°C° 0 mm 5 m/s 678 mmHg 33%
    23:00 +33°C° 0 mm 6 m/s 678 mmHg 35%

    25 Janeiro, Sexta-feira

    Tempo Temperatura Precipitação Vento Pressão Humidade
    00:00 +32°C° 0 mm 6 m/s 678 mmHg 36%
    01:00 +30°C° 0 mm 5 m/s 678 mmHg 36%
    02:00 +29°C° 0 mm 5 m/s 678 mmHg 36%
    03:00 +28°C° 0 mm 4 m/s 679 mmHg 41%
    04:00 +27°C° 0 mm 4 m/s 679 mmHg 46%
    05:00 +26°C° 0 mm 4 m/s 679 mmHg 51%
    06:00 +27°C° 0 mm 4 m/s 680 mmHg 53%
    07:00 +27°C° 0 mm 5 m/s 681 mmHg 56%
    08:00 +27°C° 0 mm 6 m/s 681 mmHg 58%
    09:00 +29°C° 0 mm 6 m/s 681 mmHg 52%
    10:00 +32°C° 0 mm 5 m/s 682 mmHg 47%
    11:00 +34°C° 0 mm 5 m/s 682 mmHg 41%
    12:00 +36°C° 0 mm 5 m/s 681 mmHg 37%
    13:00 +37°C° 0 mm 4 m/s 681 mmHg 33%
    14:00 +38°C° 0 mm 4 m/s 680 mmHg 28%
    15:00 +39°C° 0 mm 3 m/s 680 mmHg 27%
    16:00 +39°C° 0 mm 3 m/s 679 mmHg 25%
    17:00 +39°C° 0 mm 2 m/s 679 mmHg 23%
    18:00 +38°C° 0 mm 3 m/s 679 mmHg 27%
    19:00 +36°C° 0 mm 4 m/s 679 mmHg 31%
    20:00 +34°C° 0 mm 5 m/s 679 mmHg 35%
    21:00 +32°C° 1.5 mm 5 m/s 679 mmHg 43%
    22:00 +29°C° 1.5 mm 5 m/s 679 mmHg 52%
    23:00 +27°C° 1.5 mm 5 m/s 679 mmHg 61%

    26 Janeiro, Sábado

    Tempo Temperatura Precipitação Vento Pressão Humidade
    00:00 +27°C° 0 mm 4 m/s 679 mmHg 60%
    01:00 +27°C° 0 mm 4 m/s 678 mmHg 59%
    02:00 +27°C° 0 mm 3 m/s 678 mmHg 58%
    03:00 +26°C° 0.4 mm 2 m/s 678 mmHg 61%
    04:00 +25°C° 0.4 mm 2 m/s 679 mmHg 63%
    05:00 +25°C° 0.4 mm 1 m/s 679 mmHg 66%
    06:00 +26°C° 0 mm 2 m/s 679 mmHg 60%
    07:00 +27°C° 0 mm 3 m/s 680 mmHg 53%
    08:00 +28°C° 0 mm 4 m/s 681 mmHg 47%
    09:00 +30°C° 0 mm 4 m/s 681 mmHg 41%
    10:00 +34°C° 0 mm 4 m/s 682 mmHg 35%
    11:00 +36°C° 0 mm 4 m/s 682 mmHg 29%
    12:00 +37°C° 0 mm 4 m/s 681 mmHg 27%
    13:00 +38°C° 0 mm 3 m/s 681 mmHg 24%
    14:00 +40°C° 0 mm 3 m/s 680 mmHg 22%
    15:00 +40°C° 0 mm 3 m/s 680 mmHg 20%
    16:00 +40°C° 0 mm 2 m/s 679 mmHg 19%
    17:00 +40°C° 0 mm 2 m/s 679 mmHg 18%
    18:00 +38°C° 0.4 mm 3 m/s 678 mmHg 24%
    19:00 +36°C° 0.4 mm 4 m/s 678 mmHg 30%
    20:00 +33°C° 0.4 mm 5 m/s 678 mmHg 36%
    21:00 +33°C° 0.1 mm 5 m/s 679 mmHg 38%
    22:00 +32°C° 0.1 mm 5 m/s 679 mmHg 40%
    23:00 +32°C° 0.1 mm 5 m/s 680 mmHg 42%
    Mostrar mais